THOR ABLESTAR DEB, 4028

Orbit data source: Space-Track

THOR ABLESTAR DEB, 4028 is space debris in LEO originally from a launch on Thu, 29 Jun 1961 UTC launched from the Air Force Eastern Test Range (AFETR). Debris objects in space refer to the collection of defunct objects orbiting the Earth. Examples of debris include non-operational satellites, rocket bodies, and fragments generated from explosions, collisions, or faulty payload assembly.

Loading next visibility...
Identifier
4028, 1961-015JQ
Orbit
LEO
Country
Flag of USUS
Related business
Manufacturer
Unknown
Mission
Spacecraft
Bus & Motor
Unknown
Mass
Unknown
Launch date (UTC)
1961-06-29 (64 years ago)
Launch vehicle
Unknown
Launch site
Air Force Eastern Test Range (AFETR)
Object type
Payload
Rocket body
Debris
Shape & HBR
Unknown shape, 0.1 m
Radar Cross Section
Small (<0.1 m²)

Expand to show TLE details & history
Last TLE update: 1 day ago

TLE from 1 day ago
0 THOR ABLESTAR DEB
1 04028U 61015JQ  25348.79956972  .00002866  00000-0  55573-3 0  9993
2 04028  66.7505 126.7436 0089648 141.2295 219.5300 14.62262424346852
Epoch: 2025-12-14T19:11Z
TLE epoch observation values (Epoch: 2025-12-14T19:11:22.823Z)
Latitude
-0.00001°
Longitude
115.1912°
Altitude
737.099 km
Speed
7.461 km/s
True Right ascension
08h 26m 58s
True Declination
0° 00' 00"
Sunlit
Object was in full shadow at epoch
Visualization orbit readout
Latitude
Unknown
Longitude
Unknown
Altitude
Unknown
Speed
Unknown
Apparent Right ascension
Unknown
Apparent Declination
Unknown
Sunlit
N/A
Visualization observer readout
Local Sidereal Time
19:00:54
Azimuth
Unknown
Elevation
Unknown
Doppler factor
Unknown
Orbital elements
Apogee altitude
747.535 km
Perigee altitude
620.91 km
Semi-major axis
7,062.36 km
Eccentricity
0.00896
Inclination
66.7505°
RAAN
126.7436°
Arg. of periapsis
141.2295°
True anomaly
218.88177°
Mean anomaly
219.53°
Eccentric anomaly
219.20532°
Mean motion
3.65695 °/min
Orbital period
98.44 mins
BSTAR
0.00055573
Loading maneuver chart data...
Computing Atmospheric mass density...
Loading historical data...
Loading historical data...
Loading historical data...
Loading historical data...
Loading historical data...
Loading historical data...
Loading historical data...

Documentation

Showing up to 5 results
|